Location: Carnoy
(49.9849°N, 2.7558°E)
Time: 09:11:56
(UTC+00:00)

BREEZE-M DEB (TANK) - Pass Details

Date: 24 January 2020
Orbit: 305 x 15442 km, 49.5° (Epoch: 17 February)

Event Time Altitude Azimuth Distance (km) Brightness Sun altitude
Rises 19:25:35 0° 285° (WNW) 14,399 10.7 -28.1°
Reaches altitude 10° 19:42:08 10° 286° (WNW) 10,271 9.6 -30.7°
Maximum altitude 20:07:56 69° 211° (SSW) 1,765 4.7 -34.8°
Enters shadow 20:08:47 65° 177° (S) 1,652 4.4 -35.0°
